User: anonymous   Login
Location: Sungai Laei
(2.6000°N, 113.7167°E)
Time: 12:39:10
(UTC+00:00)
Language:

ARIANE 5 DEB (SYLDA) - Orbit

View from above orbital plane
View from above orbital plane
View from above satellite
View from above satellite

Ground track
Ground track

The orbit data is extracted from the following two-line orbital elements,

1 33277U 08038D   22226.88236045  .00003288  00000-0  18892-2 0  9992
2 33277   2.5459  44.6389 5710077 283.2579  21.9061  4.40628777180964
Epoch (UTC): 14 August 2022 21:10:35
Eccentricity: 0.5710077
inclination: 2.5459°
perigee height: 364 km
apogee height: 18312 km
right ascension of ascending node: 44.6389°
argument of perigee: 283.2579°
revolutions per day: 4.40628777
mean anomaly at epoch: 21.9061°
orbit number at epoch: 18096

The dashed part of the orbit path shows where the satellite is in the earth's shadow,  

DLR